This demonstration page uses our WeatherBlox Daily Observations layout. Learn more.

Left ArrowRight Arrow

41.86663, -103.66717

Hourly Observations for May 16, 2022

Temp ( °F °C ) Dew Point ( °F °C ) Humidity (%) Winds ( mph kmh ) Pressure ( in mb ) Visibility ( mi km ) Precip ( " mm )
12:53 am 00:53 Clear 49 9.4 35 1.7 59 59 E 3 6 30.03 1017 10 16 0.00 0.00
1:53 am 01:53 Clear 46 7.8 35 1.7 66 66 E 7 11 30.01 1016 10 16 0.00 0.00
2:53 am 02:53 Clear 45 7.2 35 1.7 68 68 ENE 7 11 29.99 1016 10 16 0.00 0.00
3:53 am 03:53 Clear 44 6.7 35 1.7 71 71 ENE 8 13 29.98 1015 10 16 0.00 0.00
4:53 am 04:53 Clear 44 6.7 34 1.1 68 68 E 9 15 29.97 1015 10 16 0.00 0.00
5:53 am 05:53 Sunny 44 6.7 34 1.1 68 68 E 6 9 29.95 1014 10 16 0.00 0.00
6:53 am 06:53 Sunny 50 10 36 2.2 59 59 E 8 13 29.93 1014 10 16 0.00 0.00
7:53 am 07:53 Sunny 58 14.4 38 3.3 48 48 ESE 10 17 29.92 1013 10 16 0.00 0.00
8:53 am 08:53 Sunny 63 17.2 39 3.9 41 41 ESE 6 9 29.90 1013 10 16 0.00 0.00
9:53 am 09:53 Sunny 68 20 41 5 38 38 VRB 5 7 29.89 1012 10 16 0.00 0.00
10:53 am 10:53 Sunny 75 23.9 43 6.1 32 32 undefined N/A 29.86 1011 10 16 0.00 0.00
11:53 am 11:53 Sunny 81 27.2 43 6.1 26 26 VRB 5 7 29.83 1010 10 16 0.00 0.00
12:53 pm 12:53 Sunny 83 28.3 44 6.7 25 25 VRB 5 7 29.79 1009 10 16 0.00 0.00
1:53 pm 13:53 Sunny 85 29.4 45 7.2 25 25 VRB 3 6 29.76 1008 10 16 0.00 0.00
2:53 pm 14:53 Sunny 86 30 42 5.6 21 21 VRB 3 6 29.73 1007 10 16 0.00 0.00
3:53 pm 15:53 Sunny 88 31.1 42 5.6 20 20 undefined N/A 29.71 1006 10 16 0.00 0.00
4:53 pm 16:53 Sunny 85 29.4 41 5 21 21 SE 12 19 29.70 1006 10 16 0.00 0.00
5:44 pm 17:44 Sunny 82 27.8 36 2.2 19 19 SSW 13 20 29.53 1000 10 16 0.00 0.00
5:53 pm 17:53 Partly Cloudy with Nearby Thunderstorms 81 27.2 37 2.8 21 21 SSW 9 15 29.72 1006 10 16 0.00 0.00
6:28 pm 18:28 Mostly Sunny 79 26 39 4 24 24 NW 18 30 29.57 1001 10 16 0.00 0.00
6:53 pm 18:53 Mostly Cloudy 78 25.6 39 3.9 25 25 NNW 10 17 29.73 1007 10 16 0.00 0.00
7:53 pm 19:53 Sunny 72 22.2 41 5 33 33 NE 15 24 29.71 1006 10 16 0.00 0.00
8:53 pm 20:53 Clear 72 22.2 40 4.4 31 31 SSW 9 15 29.72 1006 10 16 0.00 0.00
9:53 pm 21:53 Clear 67 19.4 41 5 39 39 E 7 11 29.72 1007 10 16 0.00 0.00
10:53 pm 22:53 Clear 64 17.8 41 5 43 43 N 9 15 29.70 1006 10 16 0.00 0.00
11:53 pm 23:53 Mostly Clear 65 18.3 43 6.1 45 45 NW 10 17 29.77 1008 10 16 0.00 0.00

Powered by AerisWeather